Location: Cran-Gévrier
(45.9039°N, 6.1012°E)
Time: 06:01:52
(UTC+00:00)

Cosmos 2208 Rocket - Pass Details

Date: 09 February 2023
Orbit: 753 x 805 km, 74.0° (Epoch: 29 March)

Event Time Altitude Azimuth Distance (km) Brightness Sun altitude
Rises 18:38:30 0° 339° (NNW) 3,218 7.5 -18.8°
Reaches altitude 10° 18:40:52 10° 341° (NNW) 2,292 6.7 -19.2°
Maximum altitude 18:46:04 78° 68° (ENE) 782 3.8 -20.1°
Enters shadow 18:50:09 17° 154° (SSE) 1,866 5.7 -20.9°
